Huanjing Jianzai 02-02

operational
NORAD ID: 46479 Int'l Des: 2020-067 Owner: ZZWYZ Country: CN
LEOCIRCULARRETROGRADESSO

Über Huanjing Jianzai 02-02

Beschreibung wird geladen...

Live-Position

3D-Globus wird geladen...

Nächste Überflüge

Höhenverlauf

Altitude vs Time

uPlot chart will show altitude changes over time

Zweizeiliger Elementsatz

1 46479U 20067B 26062.62106451 .00001086 00000-0 16294-3 0 9996
2 46479 97.8954 144.4076 0001881 93.2761 266.8665 14.76534493292688
Epoch: 3. März 2026 • Age: 25 hours

Aktueller Status

Höhe 645.2 km
Geschwindigkeit 7.54 km/s
Subsatellitenpunkt 40.27°N, 150.32°E
Startdatum 27. Sept. 2020
Alter 5.4 years
Typ other

Technische Details

Klassifizierung Payload
Masse 510.00 kg
Trockenmasse 510.00 kg
Gesamtmasse 510.00 kg
Länge 1.40 m
Durchmesser 1.00 m
Spannweite 4.00 m
Form Box + 2 Pan
Hersteller DFHZ
Bus-Typ CAST-2000
Phasenstatus In Orbit
Besitzer/Staat ZZWYZ/CN

Große Konstellationen

Loading constellations...